Tracking 19847 objects as of 16-Sep-2019
HD Live streaming from Space Station
objects crossing your sky now

FENGYUN 1C DEB

Track FENGYUN 1C DEB now!
10-day predictions


NORAD ID: 32167
Int'l Code: 1999-025CTM
Perigee: 687.2 km
Apogee: 936.0 km
Inclination: 98.6 °
Period: 101.0 minutes
Semi major axis: 7182 km
RCS: 0.0085 m2 (small)
Launch date: May 10, 1999
Source: People's Republic of China (PRC)
Launch site: Taiyaun Space Center, China (TSC)

Note: This is SATELLITE DEBRIS
aabbcc
Your satellite tracking list
Your tracking list is empty




NASA's NSSDC Master Catalog

Two Line Element Set (TLE):
1 32167U 99025CTM 19257.30908200  .00000094  00000-0  50654-4 0  9997
2 32167  98.5504 285.8946 0173146 280.3062  77.8639 14.26201392634673
Source of the keplerian elements: AFSPC